Lid_Strength_Index
4 3 3 3 3 3 3 3 3 3 3 3 3 3 3 3 5 10 11 8 5 2 4 10 11 11 12 12 9 9 13 15 14 14 13 12 14 11 11 12 11 10 8 9 11
4 4 4 4 3 3 3 3 3 3 3 3 3 3 3 3 10 12 8 4 4 3 11 11 12 12 14 13 12 12 15 15 13 13 13 14 14 14 13 13 13 12 9 10 11
3 3 4 4 4 4 3 3 3 3 3 3 3 4 3 6 12 13 5 4 4 6 10 10 12 13 14 13 13 13 15 14 14 14 14 15 15 13 14 15 13 13 12 12 11
3 3 3 3 3 3 4 3 4 4 3 3 4 4 3 11 17 12 6 5 6 9 10 11 12 14 15 15 14 15 14 14 13 14 14 15 15 15 14 13 13 13 12 13 12
4 4 4 4 4 4 3 3 3 4 4 4 4 4 9 14 16 11 7 8 10 11 12 13 14 14 16 16 15 16 16 15 15 15 15 15 15 15 15 13 13 13 13 13 13
4 4 4 4 4 4 4 4 4 4 4 5 4 5 13 17 12 11 11 11 11 12 13 13 14 13 15 16 17 16 16 16 15 15 15 16 16 15 14 14 14 14 14 14 14
3 3 4 4 4 4 4 4 4 4 4 4 5 8 15 15 12 12 11 12 11 11 13 12 12 14 15 16 14 15 17 17 16 16 16 16 17 18 15 14 15 15 14 14 14
2 3 3 3 3 3 3 3 3 4 4 5 5 12 16 12 12 11 11 12 11 11 12 12 11 13 15 14 16 18 18 19 17 16 16 17 19 16 16 15 15 15 14 14 14
3 3 3 3 3 3 3 3 3 4 4 5 12 14 17 9 13 12 12 13 12 12 12 11 13 16 17 18 19 19 21 20 19 16 16 17 19 17 16 16 15 15 15 15 14
2 3 3 3 3 3 3 4 5 7 8 9 11 16 14 15 12 12 12 12 13 14 14 15 17 19 20 20 22 21 21 20 21 19 17 19 18 16 15 16 16 15 15 16 15
2 2 3 3 3 3 7 13 14 14 14 16 15 15 14 12 11 12 12 13 13 16 19 17 19 20 20 19 19 19 20 21 20 17 18 19 19 17 15 16 17 17 17 16 15
2 2 2 3 3 4 11 14 15 15 17 14 13 13 12 12 15 14 12 16 16 19 18 20 20 19 17 17 18 19 20 22 19 18 18 19 19 17 17 17 17 17 16 16 15
2 2 3 3 4 9 12 12 9 12 19 17 14 14 14 13 16 15 13 15 18 19 19 21 19 17 18 19 19 20 20 20 20 18 19 20 20 19 18 17 16 16 15 15 14
2 2 3 4 8 10 12 10 10 13 19 17 17 15 14 14 17 13 13 15 17 19 19 20 18 18 19 19 19 20 19 18 19 21 26 20 25 20 19 19 17 16 16 15 14
2 2 3 5 8 11 10 10 11 13 22 17 17 13 14 16 16 16 13 16 18 18 19 19 19 19 19 19 18 20 18 18 19 24 27 25 27 21 20 19 17 16 15 15 15
2 3 4 6 8 8 9 11 12 16 21 18 17 18 18 17 17 16 16 14 16 18 18 20 18 18 18 18 18 17 19 20 21 25 28 27 25 22 20 19 18 17 16 15 15
1 3 4 6 9 8 9 11 15 17 17 19 19 18 19 19 18 18 19 19 20 21 21 19 19 18 17 19 17 18 21 26 25 27 25 24 27 21 18 18 18 17 16 16 16
2 3 5 6 8 8 9 13 17 16 22 18 18 19 20 19 19 19 19 21 20 21 23 23 22 18 17 19 20 20 22 25 29 28 27 24 27 20 18 17 17 17 17 16 15
2 5 6 6 6 7 10 16 15 15 16 18 18 21 21 19 20 20 21 22 20 20 21 24 22 19 17 18 19 20 22 21 29 34 30 26 23 20 18 18 18 17 17 16 16
3 4 6 4 4 7 12 13 17 14 16 15 16 18 20 21 21 22 22 19 19 17 18 21 23 20 19 18 18 19 19 23 26 29 30 26 27 21 19 18 18 18 18 17 16
3 7 5 3 4 9 13 13 13 11 13 15 16 18 18 19 20 21 20 18 18 18 17 19 20 22 19 20 21 21 21 22 23 25 28 29 22 20 19 18 17 18 17 17 15
5 11 6 4 10 11 12 12 10 12 12 13 15 16 17 18 19 20 21 19 16 16 18 17 19 25 22 21 20 19 21 21 25 27 26 26 23 17 18 17 17 17 16 16 16
9 9 6 6 12 12 12 11 11 13 12 12 13 14 15 16 16 19 21 17 15 15 18 17 21 27 23 22 20 21 20 19 22 23 26 27 21 18 18 18 17 17 16 16 16
9 12 10 10 10 12 16 13 14 10 11 10 11 11 13 15 14 16 19 15 14 14 13 14 20 23 21 20 21 22 20 19 21 26 24 22 19 16 15 15 15 17 17 16 16
8 12 11 13 12 11 11 14 17 12 12 10 12 13 13 16 15 15 14 16 15 12 14 15 24 23 23 22 22 21 21 20 21 20 23 18 19 17 15 15 15 15 16 17 17
10 10 10 13 11 11 11 13 13 13 12 12 13 13 12 14 12 14 12 13 14 14 15 16 20 24 26 24 22 22 20 21 20 19 19 19 19 15 15 15 17 18 18 19 17
6 6 8 10 12 12 12 12 13 11 11 10 11 12 13 12 9 9 9 10 11 12 13 17 19 22 25 26 27 25 22 21 19 19 19 21 17 15 16 17 18 22 19 18 18